Tracking 19153 objects as of 26-Apr-2018
HD Live streaming from Space Station
objects crossing your sky now

NADEZHDA 3

Track NADEZHDA 3 now!
10-day predictions
NADEZHDA 3 is classified as:


NORAD ID: 21152
Int'l Code: 1991-019A
Perigee: 959.9 km
Apogee: 1,023.2 km
Inclination: 82.9 °
Period: 104.8 minutes
Semi major axis: 7362 km
RCS: 2.4675 m2 (large)
Launch date: March 12, 1991
Source: Commonwealth of Independent States (former USSR) (CIS)
Launch site: PLESETSK MISSILE AND SPACE COMPLEX (PKMTR)
aabbcc
Your satellite tracking list
Your tracking list is empty




NASA's NSSDC Master Catalog

Two Line Element Set (TLE):
1 21152U 91019A   18116.20604609  .00000032  00000-0  17559-4 0  9991
2 21152  82.9282 349.2263 0043021  81.2803  37.2189 13.74230145359945
Source of the keplerian elements: AFSPC